Regional Weather Roundup
Issued by NWS

Home | Current Version | Previous Version | Text Only | Print | Product List | Glossary On
Versions: 1 2 3 4 5 6 7 8 9 10 11 12 13 14 15 16 17 18 19 20 21 22 23 24 25 26 27
000
ASUS45 KBOI 281410
RWRID

IDAHO REGIONAL WEATHER ROUNDUP
NATIONAL WEATHER SERVICE BOISE ID
800 AM MDT THU JUL 28 2016

NOTE: "FAIR" INDICATES FEW OR NO CLOUDS BELOW 12000 FEET
WITH NO SIGNIFICANT WEATHER AND/OR OBSTRUCTIONS TO VISIBILITY

IDZ012-014-281500-
SOUTHWEST IDAHO


CITY           SKY/WX    TMP DP  RH WIND       PRES   REMARKS
BOISE          SUNNY     71  46  40 CALM      30.07R
CALDWELL       SUNNY     71  52  50 NW3       30.06R
MOUNTAIN HOME  SUNNY     70  47  44 NE6       30.07R
$$

IDZ016-017-281500-
SOUTHCENTRAL IDAHO


CITY           SKY/WX    TMP DP  RH WIND       PRES   REMARKS
BURLEY         SUNNY     61  54  77 S5        30.15R
JEROME         SUNNY     69  44  40 E3        30.15R
TWIN FALLS     SUNNY     72  39  30 SW6       30.16R
$$

IDZ019>023-281500-
SOUTHEAST IDAHO


CITY           SKY/WX    TMP DP  RH WIND       PRES   REMARKS
IDAHO FALLS    SUNNY     62  45  53 N7        30.19R
POCATELLO      SUNNY     63  42  46 S5        30.18R
REXBURG        SUNNY     61  48  62 NE7       30.20R
$$

IDZ006-010-011-018-031-032-281500-
CENTRAL IDAHO MOUNTAINS


CITY           SKY/WX    TMP DP  RH WIND       PRES   REMARKS
MCCALL         SUNNY     58  47  66 CALM      30.22R
HAILEY         SUNNY     59  43  55 W7        30.26R
STANLEY          N/A     49  36  61 CALM      30.34S
SALMON         SUNNY     55  45  67 CALM      30.18R
CHALLIS        SUNNY     63  38  39 CALM      30.23R
$$

IDZ002-004-006-007-026-281500-
NORTHERN IDAHO


CITY           SKY/WX    TMP DP  RH WIND       PRES   REMARKS
LEWISTON       SUNNY     71  53  52 CALM      30.05R
LOWELL           N/A     60  56  86 CALM      30.12R
COEUR D`ALENE  SUNNY     68  54  60 NE9       30.08R
MULLAN PASS    SUNNY     64  45  49 CALM      30.29R
$$




USA.gov is the U.S. government's official web portal to all federal, state and local government web resources and services.